Change the Weather History Date:

Sunday, November 11, 2012

  Actual Average Record
Temperature  
Mean Temperature 66 °F -  
Max Temperature 71 °F 76 °F 89 °F (2007)
Min Temperature 60 °F 53 °F 53 °F (2013)
Growing Degree Days 16 (Base 50)    
Moisture  
Dew Point 55 °F    
Average Humidity 69    
Maximum Humidity 82    
Minimum Humidity 53    
Precipitation  
Precipitation 0.00 in - - ()
Sea Level Pressure  
Sea Level Pressure 29.92 in    
Wind  
Wind Speed 2 mph ()    
Max Wind Speed 6 mph    
Max Gust Speed -    
Visibility 0.9 miles    
Events      
Averages and records for this station are not official NWS values.
T = Trace of Precipitation, MM = Missing Value Source: Averaged Metar Reports

Daily Weather History Graph

Daily Weather History Graph

Search for Another Location

Airport or City:

Trip Planner

Search our weather history database for the weather conditions in past years. The results will help you decide how hot, cold, wet, or windy it might be!

Date:

Astronomy

Nov. 11, 2012 Rise Set
Actual Time 6:40 AM IST 5:29 PM IST
Civil Twilight 6:16 AM IST 5:54 PM IST
Nautical Twilight 5:47 AM IST 6:22 PM IST
Astronomical Twilight 5:19 AM IST 6:50 PM IST
Moon 3:35 AM IST (11/11) 3:25 PM IST (11/11)
Length of Visible Light 11h 38m
Length of Day
10h 48m
Waning Crescent, 10% of the Moon is Illuminated
Nov 11
Waning Crescent
Nov 14
New
Nov 20
First Quarter
Nov 28
Full
Dec 6
Last Quarter

Hourly Weather History & Observations

Time (IST) Temp. Dew Point Humidity Pressure Visibility Wind Dir Wind Speed Gust Speed Precip Events Conditions
12:00 AM 66.2 °F 51.8 °F 60% 29.95 in 1.4 mi East 4.6 mph - N/A   Smoke
12:30 AM 66.2 °F 51.8 °F 60% 29.95 in 1.4 mi East 3.5 mph - N/A   Smoke
1:00 AM 66.2 °F 51.8 °F 60% 29.92 in 1.4 mi East 4.6 mph - N/A   Smoke
1:30 AM 66.2 °F 51.8 °F 60% 29.92 in 1.1 mi Calm Calm - N/A   Smoke
2:00 AM 64.4 °F 51.8 °F 64% 29.92 in 1.1 mi Calm Calm - N/A   Smoke
2:30 AM 64.4 °F 51.8 °F 64% 29.92 in 1.1 mi Calm Calm - N/A   Smoke
3:30 AM 64.4 °F 53.6 °F 68% 29.92 in 0.9 mi Calm Calm - N/A   Smoke
4:00 AM 64.4 °F 53.6 °F 68% 29.92 in 0.9 mi Calm Calm - N/A   Smoke
4:30 AM 62.6 °F 53.6 °F 72% 29.92 in 0.9 mi Calm Calm - N/A   Smoke
5:00 AM 60.8 °F 53.6 °F 77% 29.92 in 0.9 mi Calm Calm - N/A   Mist
5:30 AM 60.8 °F 55.4 °F 82% 29.92 in 0.9 mi Calm Calm - N/A   Mist
6:00 AM 60.8 °F 55.4 °F 82% 29.92 in 0.8 mi Calm Calm - N/A   Mist
6:30 AM 60.8 °F 55.4 °F 82% 29.95 in 0.7 mi Calm Calm - N/A   Mist
7:00 AM 60.8 °F 55.4 °F 82% 29.95 in 0.7 mi Calm Calm - N/A   Mist
7:30 AM 60.8 °F 55.4 °F 82% 29.95 in 0.6 mi Calm Calm - N/A   Mist
7:00 PM 71.6 °F 53.6 °F 53% 29.89 in 1.3 mi Calm Calm - N/A   Smoke
7:30 PM 71.6 °F 55.4 °F 57% 29.92 in 1.1 mi Calm Calm - N/A   Smoke
8:30 PM 69.8 °F 57.2 °F 64% 29.92 in 0.7 mi NE 2.3 mph - N/A   Smoke
9:00 PM 69.8 °F 57.2 °F 64% 29.92 in 0.7 mi ENE 3.5 mph - N/A   Smoke
9:30 PM 69.8 °F 57.2 °F 64% 29.92 in 0.7 mi ENE 3.5 mph - N/A   Smoke
10:00 PM 68.0 °F 57.2 °F 68% 29.92 in 0.6 mi East 2.3 mph - N/A   Smoke
10:30 PM 68.0 °F 57.2 °F 68% 29.92 in 0.6 mi East 4.6 mph - N/A   Smoke
11:00 PM 66.2 °F 57.2 °F 73% 29.92 in 0.6 mi East 3.5 mph - N/A   Smoke
11:30 PM 66.2 °F 57.2 °F 73% 29.92 in 0.6 mi NE 5.8 mph - N/A   Smoke